Tracking 19564 objects as of 19-Mar-2019
HD Live streaming from Space Station
objects crossing your sky now

RADUGA 1-5

Track RADUGA 1-5 now!
RADUGA 1-5 is classified as:


NORAD ID: 26477
Int'l Code: 2000-049A
Perigee: 35,767.0 km
Apogee: 35,816.1 km
Inclination: 12.4 °
Period: 1,436.0 minutes
Semi major axis: 42162 km
RCS: 10 m2 (large)
Launch date: August 28, 2000
Source: Commonwealth of Independent States (former USSR) (CIS)
Launch site: TYURATAM MISSILE AND SPACE COMPLEX (TTMTR)

Military communication.
aabbcc
Your satellite tracking list
Your tracking list is empty




NASA's NSSDC Master Catalog

Two Line Element Set (TLE):
1 26477U 00049A   19077.80389720 -.00000360 +00000-0 +00000-0 0  9990
2 26477 012.3518 027.7336 0005812 330.8170 212.4228 01.00279623067873
Source of the keplerian elements: AFSPC